Printer-friendly version

IAU Minor Planet Center

Minor Planet Center

MPEC 2005-U82 : 2005 UO5

The following Minor Planet Electronic Circular may be linked-to from your own Web pages, but must not otherwise be redistributed electronically.


Read MPEC 2005-U81 Read MPEC 2005-U83


M.P.E.C. 2005-U82                                Issued 2005 Oct. 28, 17:38 UT

     The Minor Planet Electronic Circulars contain information on unusual
         minor planets and routine data on comets.  They are published
   on behalf of Commission 20 of the International Astronomical Union by the
          Minor Planet Center, Smithsonian Astrophysical Observatory,
                          Cambridge, MA 02138, U.S.A.

                  Supported in part by the Brinson Foundation
                  Supported in part by the TABASGO Foundation
             Prepared using the Tamkin Foundation Computer Network

                              MPC@CFA.HARVARD.EDU
          URL http://cfa-www.harvard.edu/iau/mpc.html  ISSN 1523-6714

                                   2005 UO5

Observations:
     K05U05O* C2005 10 27.56110 01 19 15.31 -35 13 26.1          19.8   EU082E12
     K05U05O  C2005 10 27.56982 01 19 12.57 -35 13 02.1          19.6   EU082E12
     K05U05O  C2005 10 27.57852 01 19 09.94 -35 12 36.9          19.5   EU082E12
     K05U05O  C2005 10 27.58707 01 19 07.42 -35 12 14.8          19.3   EU082E12
     K05U05O  C2005 10 27.62436 01 18 56.23 -35 10 31.4          19.6   EU082E12
     K05U05O  C2005 10 27.63431 01 18 53.13 -35 10 03.1          19.7   EU082E12
     K05U05O  C2005 10 27.64426 01 18 50.22 -35 09 36.5          18.6   EU082E12
     K05U05O  C2005 10 27.65413 01 18 47.30 -35 09 08.0          19.6   EU082E12
     K05U05O bC2005 10 27.70120 01 18 33.30 -35 06 56.8          19.7   EU082E12
     K05U05O bC2005 10 27.70210 01 18 33.15 -35 06 54.3          19.5   EU082E12
     K05U05O bC2005 10 27.70299 01 18 32.86 -35 06 51.5          20.5   EU082E12
     K05U05O bC2005 10 27.70387 01 18 32.65 -35 06 48.4          19.9   EU082E12
     K05U05O  C2005 10 28.20896 01 16 10.67 -34 44 08.0          20.1 R EU082H36
     K05U05O  C2005 10 28.22561 01 16 05.82 -34 43 20.5          20.3 R EU082H36
     K05U05O  C2005 10 28.24149 01 16 00.90 -34 42 35.7          20.2 R EU082H36

Observer details:
E12 Siding Spring Survey.  Observer R. H. McNaught.  Measurers E. C. Beshore,
    E. J. Christensen, G. J. Garradd, A. D. Grauer, R. E. Hill, R. A. Kowalski,
    S. M. Larson, R. H. McNaught.  0.5-m Uppsala Schmidt + CCD.
H36 Sandlot Observatory, Scranton.  Observer G. Hug.  0.30-m
    Schmidt-Cassegrain + CCD.

Orbital elements:
2005 UO5
Epoch 2005 Aug. 18.0 TT = JDT 2453600.5                 MPC
M 227.42392              (2000.0)            P               Q
n   0.77307947     Peri.   73.56403     -0.51375234     -0.81508262
a   1.1757635      Node    50.47517     +0.59300703     -0.56291377
e   0.1573941      Incl.   20.31251     +0.62000097     -0.13699781
P   1.27           H   20.3           G   0.15           U   7
Residuals in seconds of arc
051027 E12  1.0+  0.6-    051027 E12  1.1-  0.8+    051027 E12  0.1+  0.3-
051027 E12  0.3-  0.4-    051027 E12  0.4-  0.3-    051027 E12  0.7+  0.3+
051027 E12  0.4-  1.0+    051027 E12  0.1-  0.6+    051028 H36  0.5-  0.3-
051027 E12  0.2+  0.3-    051027 E12  0.9-  0.6-    051028 H36  1.2+  0.3+
051027 E12  0.4+  0.2+    051027 E12  0.5+  0.6-    051028 H36  0.7-  0.1+

Ephemeris:
2005 UO5                 a,e,i = 1.18, 0.16, 20                  q = 0.9907
Date    TT    R. A. (2000) Decl.     Delta      r     Elong.  Phase     V
2005 10 27    01 21.94   -35 38.3    0.244    1.168   130.6    40.3    19.2
2005 11 06    00 36.31   -26 04.0    0.224    1.142   127.7    43.4    19.0
2005 11 16    00 00.13   -13 03.1    0.221    1.117   120.4    49.8    19.1
2005 11 26    23 35.68   +00 37.9    0.234    1.093   110.9    57.5    19.4
2005 12 06    23 21.08   +12 55.0    0.259    1.069   101.9    64.4    19.8
2005 12 16    23 13.48   +23 16.4    0.289    1.048    94.6    69.4    20.1
2005 12 26    23 10.38   +31 57.8    0.321    1.029    89.0    72.9    20.4
2006 01 05    23 10.30   +39 26.3    0.350    1.013    84.8    75.1    20.7
2006 01 15    23 12.12   +46 05.0    0.374    1.001    81.8    76.5    20.8
2006 01 25    23 15.25   +52 09.6    0.392    0.994    79.9    77.2    20.9
2006 02 04    23 19.77   +57 54.6    0.402    0.991    79.0    77.6    21.0
2006 02 14    23 26.07   +63 33.0    0.403    0.992    78.9    77.6    21.0
2006 02 24    23 35.93   +69 17.2    0.397    0.999    79.8    77.2    21.0
2006 03 06    23 55.07   +75 23.8    0.382    1.009    81.6    76.4    20.9
2006 03 16    00 50.13   +82 02.4    0.362    1.024    84.3    75.1    20.8
2006 03 26    06 21.68   +85 57.6    0.338    1.042    88.0    73.0    20.6
2006 04 05    09 52.06   +77 38.4    0.315    1.063    92.8    70.1    20.4
2006 04 15    10 33.94   +65 15.8    0.296    1.086    98.2    66.1    20.2
2006 04 25    10 54.47   +50 34.1    0.289    1.110   103.5    61.8    20.0
2006 05 05    11 09.94   +34 55.4    0.300    1.135   107.5    57.9    20.0
2006 05 15    11 24.24   +20 13.7    0.329    1.160   109.0    55.4    20.2
2006 05 25    11 38.65   +07 44.6    0.374    1.185   108.4    54.2    20.5
2006 06 04    11 53.88   -02 19.3    0.433    1.210   106.3    53.6    20.9
2006 06 14    12 10.23   -10 20.2    0.500    1.233   103.6    53.2    21.2
2006 06 24    12 27.86   -16 47.1    0.573    1.255   100.6    52.8    21.5
2006 07 04    12 46.98   -22 05.3    0.649    1.275    97.5    52.2    21.8

Kyle E. Smalley              (C) Copyright 2005 MPC           M.P.E.C. 2005-U82

Read MPEC 2005-U81 Read MPEC 2005-U83


Our Web policy. Index to the CBAT/MPC/ICQ pages.


Valid HTML 4.01!